GFSGL_prec_cloud_231.txt.gz
Cloud_Cover
99 28 9 5 69 92 53 81 85 54 64 99 99 82 6 86 100 100 100 100 100 100 100 100 91 71 43 32 36 33 28 45 100 38 5 5 5 61 100 98 100 89 92
37 70 6 43 65 96 100 100 100 100 100 27 5 5 6 14 93 21 18 99 100 79 100 65 6 6 8 16 7 5 5 17 99 5 5 9 32 66 67 99 98 94 100
90 37 76 94 38 12 15 61 100 44 5 100 97 58 12 52 4 15 16 46 13 34 7 5 5 5 5 5 59 5 5 22 100 100 61 87 15 5 6 19 5 5 100
100 90 5 54 37 24 48 100 100 59 11 100 100 96 58 11 5 29 16 5 5 5 5 5 5 4 5 5 14 5 4 5 7 68 86 82 27 5 5 5 11 56 100
100 100 46 98 100 100 100 96 23 5 5 18 74 8 5 5 5 0 0 0 0 0 0 0 2 5 5 5 5 5 5 5 5 5 5 29 81 5 5 44 6 27 100
100 100 100 100 96 23 37 5 5 5 0 0 0 0 0 1 0 0 5 5 5 5 3 0 0 0 0 0 5 5 7 24 92 100 87 48 53 34 5 6 95 94 95
97 41 77 19 5 5 5 17 5 0 0 1 1 5 0 2 0 5 5 17 100 5 0 0 0 0 0 2 5 5 6 92 100 86 57 67 18 49 12 5 45 96 94
47 5 5 5 5 5 5 5 0 2 4 5 5 2 4 0 0 4 5 4 94 4 0 0 0 0 0 3 10 43 100 100 15 5 83 100 76 28 55 82 97 73 51
5 5 5 5 5 5 5 8 5 7 5 5 5 5 2 5 0 0 1 0 4 0 0 0 5 5 5 5 16 99 100 100 56 4 2 16 21 5 88 46 78 24 50
5 5 5 5 5 35 49 5 5 5 20 5 5 4 0 0 0 0 0 0 3 5 0 0 5 0 4 5 5 36 100 57 92 11 6 5 20 69 93 82 96 86 68
17 68 23 27 12 5 14 5 13 5 5 5 5 5 5 5 0 0 0 0 0 5 0 1 5 5 5 5 5 5 38 100 100 80 5 6 5 5 12 65 100 90 51
5 5 5 5 13 23 40 5 7 18 5 5 5 3 5 2 0 0 0 0 0 3 5 5 5 5 5 5 5 5 5 17 6 6 5 5 5 10 5 71 57 98 79
5 5 43 15 42 6 9 9 37 41 5 5 5 0 0 0 0 0 0 0 0 4 5 56 12 5 5 5 5 5 5 5 5 5 5 5 5 8 5 17 86 72 98
24 59 34 22 5 11 37 71 67 8 5 5 5 0 0 0 0 0 0 0 5 22 5 5 5 5 5 5 3 5 5 5 5 4 5 25 22 73 31 32 43 61 73
92 76 91 54 30 40 60 26 5 5 5 5 5 4 0 0 0 2 16 6 5 5 5 5 0 0 0 0 4 5 5 5 2 0 18 50 100 100 100 74 99 100 98
68 96 48 5 22 21 6 5 6 35 9 5 5 2 0 3 4 4 5 5 5 5 5 5 4 3 5 5 5 5 5 5 4 3 97 100 100 100 100 100 100 100 100
75 78 58 20 13 5 5 5 5 5 5 5 5 0 0 5 5 5 5 5 57 5 5 5 5 5 5 5 5 5 4 0 1 50 97 100 100 100 100 100 100 100 100
68 58 26 19 38 11 5 5 5 5 5 5 5 0 0 5 71 77 10 5 5 5 5 5 5 2 0 0 0 0 0 5 95 75 82 100 100 100 100 100 100 100 100
80 46 26 58 59 68 50 16 12 5 5 5 5 5 4 5 9 52 6 5 5 5 5 4 2 2 5 2 0 0 7 39 34 75 89 100 100 100 100 100 100 100 100
6 6 5 5 5 5 5 5 5 5 5 5 5 5 5 5 5 5 5 5 5 5 5 5 5 5 0 0 0 18 79 80 77 93 100 100 100 100 100 100 100 100 100
22 45 58 8 5 5 2 5 5 5 5 14 5 5 5 5 56 10 47 5 5 5 5 5 5 5 0 0 8 54 68 71 100 100 100 100 100 100 100 100 100 100 100
6 5 5 18 5 5 3 5 5 22 80 33 93 88 12 5 5 5 5 5 5 5 5 5 5 5 0 3 84 56 78 100 100 100 100 100 100 100 100 100 100 100 100
5 7 32 5 5 5 4 5 8 96 100 95 69 59 87 90 99 17 5 5 5 5 5 5 5 5 0 29 54 67 66 91 100 100 100 100 100 100 100 100 100 100 100
6 59 50 5 5 5 5 8 5 12 6 5 100 14 91 88 25 12 32 5 0 5 5 5 5 5 5 5 50 27 74 66 100 100 100 100 100 100 100 100 100 100 100
52 20 5 3 3 0 5 5 5 99 82 75 5 43 99 98 95 44 90 19 77 25 8 5 5 5 5 7 26 49 54 100 100 100 100 100 100 100 100 100 100 100 100
5 5 5 3 5 5 5 39 84 88 76 92 36 16 11 99 73 100 90 96 99 53 30 5 5 5 5 5 5 9 100 100 100 100 100 100 100 100 100 100 100 100 100

GFSGL_prec_cloud_234.txt.gz
Cloud_Cover
23 1 10 49 5 5 76 9 5 5 4 1 0 0 5 5 4 5 5 5 9 45 73 70 18 39 10 11 14 8 5 12 17 13 5 5 5 5 77 82 76 56 78
81 84 61 91 5 5 26 21 5 5 40 100 97 1 0 1 16 30 22 5 5 14 5 5 5 5 5 5 5 5 5 5 87 68 86 83 5 5 5 5 17 5 5
100 11 5 53 6 83 100 21 5 41 100 100 100 22 5 5 5 4 5 5 5 4 4 5 5 4 3 2 0 2 5 5 5 36 58 5 5 5 5 5 5 51 5
100 38 75 81 100 100 100 64 5 5 16 4 5 5 1 0 0 0 0 0 0 0 0 0 0 2 0 0 4 5 5 5 5 16 6 5 5 5 5 5 4 76 12
92 90 99 100 99 41 6 0 0 0 0 0 0 0 0 0 1 5 5 5 0 0 0 0 0 0 0 0 0 0 5 5 40 100 100 94 10 5 5 13 5 36 5
48 14 57 14 20 5 1 0 0 1 2 0 0 0 0 0 4 3 4 80 0 0 0 0 0 0 0 3 5 5 5 88 94 27 5 96 73 8 5 96 67 9 38
5 5 5 5 5 5 0 0 0 0 0 5 4 0 3 0 0 4 0 1 0 0 0 0 5 5 4 5 1 0 5 3 86 56 60 100 64 73 5 70 99 91 50
5 5 5 5 5 5 5 4 0 0 2 5 0 0 0 0 0 0 0 0 0 0 0 0 0 2 5 5 4 0 0 0 3 35 100 88 5 15 54 74 80 17 52
5 5 5 5 2 4 5 5 5 5 5 5 5 5 2 0 0 0 0 0 0 0 0 1 3 4 1 0 0 0 1 5 5 100 100 67 5 5 5 18 90 100 49
5 4 5 5 5 5 5 5 5 21 32 5 5 5 0 0 0 0 0 0 5 0 4 5 5 5 5 5 5 0 3 5 5 5 87 100 38 5 5 41 85 100 63
2 5 5 5 7 6 5 7 19 5 5 5 5 5 5 0 0 0 0 0 0 5 5 5 5 5 5 5 5 5 3 5 5 5 98 69 40 5 5 7 55 100 99
5 5 5 7 5 27 11 5 5 5 5 5 5 5 1 0 0 0 0 5 5 5 5 5 5 5 5 5 3 0 0 0 4 5 3 10 5 9 43 19 100 87 40
5 25 79 12 5 6 4 5 5 5 5 5 4 0 0 0 0 0 0 5 5 5 5 5 5 2 0 0 0 0 0 3 3 0 2 5 57 83 100 85 82 99 91
82 37 24 5 5 1 5 5 5 5 5 5 1 0 0 0 1 5 5 5 5 5 5 5 0 0 0 0 3 5 5 5 2 5 15 97 100 100 100 100 100 75 100
20 5 5 3 0 4 5 13 21 5 5 4 0 0 0 1 5 5 5 5 5 5 5 0 0 0 0 0 0 0 0 0 1 29 86 100 100 100 100 100 100 100 100
23 7 5 5 5 7 66 84 27 5 1 4 0 0 0 5 5 5 5 5 5 5 0 0 0 0 0 0 0 0 0 0 4 16 95 100 100 100 100 100 100 100 100
64 5 5 5 5 5 31 5 5 2 3 5 5 0 0 5 3 5 5 5 0 0 0 0 0 0 0 0 0 0 0 3 6 61 100 100 100 100 100 100 100 100 100
60 11 5 5 6 21 5 4 5 0 5 5 5 5 0 0 5 5 5 4 0 4 5 0 0 0 5 0 0 1 13 40 86 100 100 100 100 100 100 100 100 100 100
79 44 5 6 58 38 5 5 5 4 5 5 5 5 5 1 4 5 5 5 5 5 5 5 5 0 0 3 4 16 36 77 99 100 100 100 100 100 100 100 100 100 100
46 60 14 42 17 11 5 5 5 5 5 5 5 6 98 64 49 7 5 5 5 5 5 5 5 0 0 2 67 60 74 100 100 100 100 100 100 100 100 100 100 100 100
65 14 5 5 22 19 5 1 0 5 72 68 5 45 95 16 67 66 4 5 5 5 0 5 5 5 5 40 5 54 96 97 100 100 100 100 100 100 100 100 100 100 100
10 16 10 7 5 5 0 4 5 5 5 5 30 10 61 97 100 52 7 26 35 37 5 4 5 5 5 31 60 93 93 100 100 100 100 100 100 100 100 100 100 100 100
5 5 5 5 5 0 0 5 5 5 5 5 55 97 23 45 32 92 70 78 83 99 18 5 5 5 5 5 7 96 100 100 100 100 100 100 100 100 100 100 100 100 100
5 5 5 5 5 0 5 2 4 5 16 81 52 36 91 98 20 60 100 55 75 94 98 5 5 5 5 5 7 99 100 100 100 100 100 100 100 100 100 100 100 100 100
5 5 5 5 0 1 0 2 0 5 5 96 57 87 100 100 100 64 27 100 81 98 99 40 24 64 5 5 64 100 100 100 100 100 100 100 100 100 100 100 100 100 100
4 3 4 0 0 2 5 5 5 5 5 19 85 68 59 48 30 48 12 90 100 88 28 44 19 92 6 6 98 100 100 100 100 100 100 100 100 100 100 100 100 100 100

GFSGL_prec_cloud_237.txt.gz
Cloud_Cover
0 0 2 6 5 5 5 14 52 99 100 100 14 9 31 26 21 13 2 3 5 5 5 5 5 5 11 13 7 5 5 7 5 11 17 95 89 30 9 5 5 5 0
0 4 5 5 26 68 5 8 100 100 97 100 6 5 0 0 1 6 4 0 0 0 0 5 5 5 0 2 0 3 5 5 27 31 5 7 5 5 5 5 5 5 0
5 5 6 76 100 50 5 5 5 1 0 0 0 0 0 0 0 0 0 0 0 0 0 0 0 0 0 0 4 5 5 5 5 7 41 14 5 5 5 4 4 4 0
5 89 97 41 10 1 0 0 0 0 0 0 0 0 0 0 0 5 3 0 0 0 0 0 0 0 0 0 0 0 5 7 6 12 49 23 69 15 5 4 3 0 2
5 67 43 5 4 0 0 0 0 0 0 0 0 0 0 0 0 0 2 0 0 0 0 0 0 0 0 0 2 3 5 5 13 17 8 64 100 5 5 5 10 5 5
5 5 5 5 5 0 0 0 0 1 0 5 0 0 0 0 0 0 0 0 0 0 0 0 2 0 2 1 4 0 0 0 0 23 19 25 57 6 7 38 33 100 48
5 5 5 5 2 0 0 0 1 5 4 5 5 5 4 0 0 0 0 0 0 0 0 0 0 0 0 0 0 0 0 2 1 4 5 5 15 100 93 99 85 69 94
5 5 5 2 3 4 5 5 5 5 5 5 5 5 5 0 0 0 4 0 0 0 0 0 0 0 0 1 3 3 5 5 5 5 5 5 40 100 100 42 28 100 100
5 5 5 5 5 5 5 5 5 5 3 5 5 5 5 0 0 0 0 0 0 0 1 4 4 5 5 5 5 5 5 5 5 5 5 5 5 97 97 9 6 51 100
5 5 5 5 5 5 5 5 5 5 5 6 5 5 0 0 0 0 0 0 0 5 5 5 5 5 5 5 5 2 0 4 0 5 5 0 5 95 9 21 98 100 100
5 9 44 5 5 5 5 0 5 5 5 5 1 0 0 0 0 0 4 5 5 5 5 5 5 4 0 0 0 0 1 2 5 5 0 1 3 99 100 100 100 100 100
38 12 15 5 5 5 5 5 8 24 25 5 5 0 2 0 0 2 4 3 5 5 5 5 5 5 0 0 0 0 5 5 2 0 3 5 18 100 100 100 100 100 100
18 10 5 5 5 5 5 12 70 16 5 5 0 1 0 0 0 0 0 0 5 4 0 4 1 0 0 0 0 0 0 0 2 4 28 95 100 100 100 100 100 100 99
5 5 5 12 5 5 8 8 5 5 5 5 0 5 0 0 0 0 4 5 0 4 0 0 0 0 0 0 0 0 0 0 11 33 51 100 100 100 100 100 100 100 100
5 19 14 5 5 5 13 5 5 5 5 5 5 0 0 0 1 5 5 4 5 5 2 0 0 0 0 0 0 0 0 0 8 93 100 100 100 100 100 100 100 100 100
39 19 7 5 5 9 5 5 5 4 4 5 0 2 0 0 5 5 5 5 5 5 5 0 0 0 0 0 0 0 5 30 62 100 100 100 100 100 100 100 100 100 100
46 21 36 7 5 5 5 5 0 2 1 4 5 5 5 5 5 5 5 62 5 5 5 5 0 0 0 0 0 5 6 14 92 100 100 100 100 100 100 100 100 100 100
62 8 15 11 5 5 6 5 5 2 5 5 5 5 5 36 15 5 5 4 5 5 5 5 5 5 5 4 11 43 82 100 100 100 100 100 100 100 100 100 100 100 100
94 37 13 23 13 5 5 5 5 4 5 0 5 17 5 5 46 89 5 2 5 4 2 4 5 5 5 5 5 5 13 43 99 100 100 100 100 100 100 100 100 100 100
11 8 5 6 27 5 4 3 1 1 5 5 9 8 5 5 8 96 6 84 61 5 4 0 5 5 5 5 5 54 100 100 100 100 100 100 100 100 100 100 100 100 100
5 42 25 15 5 5 5 0 5 5 5 5 5 5 33 53 89 48 90 88 85 100 92 5 5 5 5 5 19 78 99 100 100 100 100 100 100 100 100 100 100 100 100
5 18 20 5 5 5 5 0 4 5 5 3 5 5 81 16 96 32 80 91 100 94 93 28 5 61 5 5 56 99 99 100 100 100 100 100 100 100 100 100 100 100 100
5 5 5 5 5 5 5 0 0 3 0 5 76 100 95 96 91 18 99 81 90 85 100 88 5 50 10 6 85 100 100 100 100 100 100 100 100 100 100 100 100 100 100
21 5 5 5 5 2 0 0 5 5 5 10 88 100 100 52 5 69 61 5 72 97 100 74 13 86 22 11 99 100 100 100 100 100 100 100 100 100 100 100 100 100 100
6 14 5 5 5 31 5 5 5 5 5 4 5 5 6 18 20 76 5 49 77 97 72 76 98 89 5 39 100 100 100 100 100 100 100 100 100 100 100 100 100 100 100
0 5 5 5 76 91 28 17 5 5 5 2 2 5 4 9 28 45 54 5 25 31 80 88 100 41 16 30 99 100 100 100 100 100 100 100 100 100 100 100 100 100 100

GFSGL_prec_cloud_240.txt.gz
Cloud_Cover
0 0 3 5 5 5 89 100 99 92 71 6 5 4 4 3 5 2 0 0 0 0 0 5 4 1 0 0 0 0 2 32 24 5 5 5 5 5 5 5 5 1 0
1 5 8 96 44 5 29 23 5 5 0 0 0 0 0 0 0 0 0 0 0 0 0 0 0 0 0 0 3 5 5 5 38 5 5 11 21 5 5 5 5 5 3
5 5 94 43 5 4 0 0 0 0 0 0 0 0 0 0 0 2 0 0 0 0 0 0 0 0 0 0 0 0 4 5 5 50 50 8 5 5 5 5 5 5 3
5 5 5 2 0 0 0 0 0 0 0 0 0 0 0 0 0 0 0 0 0 0 0 0 0 0 0 0 0 1 2 0 7 40 36 24 23 2 7 2 1 2 0
5 5 5 0 0 0 0 0 0 0 0 0 0 2 4 0 1 5 0 0 0 0 0 0 0 0 0 0 0 0 0 0 0 0 0 18 1 0 1 18 52 5 5
100 97 40 5 0 0 0 0 0 0 0 0 5 5 5 5 5 5 0 0 0 0 0 0 0 0 0 0 2 1 0 0 0 0 0 1 0 2 11 40 47 65 100
41 6 3 0 0 0 0 0 2 5 4 5 5 5 5 5 5 0 0 0 0 0 0 0 0 2 3 5 5 5 5 5 5 5 0 4 1 0 57 48 66 95 100
5 23 24 5 5 5 5 5 5 5 5 5 5 7 5 5 1 0 0 0 0 1 5 5 5 5 4 2 2 2 3 5 5 5 4 5 5 0 26 35 100 100 50
71 40 19 42 63 24 5 5 6 5 5 27 32 5 5 3 0 0 0 0 5 5 5 5 5 5 4 0 0 0 0 2 5 4 5 5 5 1 5 28 99 80 100
5 21 66 67 78 16 6 5 2 4 6 5 10 6 0 0 0 0 3 4 2 0 0 0 1 3 0 0 0 0 0 0 1 4 5 2 4 5 5 42 92 100 100
5 54 40 65 34 8 5 5 6 42 68 21 5 5 0 0 0 3 0 0 4 5 0 0 0 0 0 0 0 0 0 5 4 3 0 2 5 44 99 100 100 100 100
21 9 23 5 5 5 5 5 40 51 5 6 5 5 2 0 3 5 5 5 4 0 0 0 0 0 0 0 0 0 0 0 0 0 3 5 96 100 100 100 100 100 100
5 19 15 26 5 5 5 5 37 22 66 6 4 0 0 0 0 5 5 5 5 5 5 4 0 0 0 0 0 0 0 0 1 16 95 100 100 100 100 100 100 100 100
62 79 54 7 5 5 5 5 63 16 5 5 0 1 0 0 3 5 17 14 5 5 5 5 1 5 4 0 0 0 0 5 14 100 100 100 100 100 100 100 100 100 100
30 72 62 5 5 5 5 5 5 5 5 5 4 5 5 5 0 5 5 5 5 5 5 2 0 0 0 0 0 3 5 36 95 100 100 100 100 100 100 100 100 100 100
54 81 56 24 5 5 5 5 5 8 5 0 4 5 14 5 5 5 5 5 5 5 0 0 0 5 5 4 5 36 40 84 100 100 100 100 100 100 100 100 100 100 100
39 8 84 29 5 5 5 5 5 3 4 5 1 5 5 5 5 10 7 5 5 5 5 0 3 5 5 5 5 5 27 86 99 100 100 100 100 100 100 100 100 100 100
57 61 35 17 5 5 5 5 5 0 5 5 5 4 5 31 5 91 17 62 5 5 5 5 5 5 5 5 5 47 100 100 100 100 100 100 100 100 100 100 100 100 100
5 5 6 14 5 5 5 5 5 1 5 5 5 5 5 11 81 31 89 73 32 98 55 86 12 7 5 5 5 60 90 100 100 100 100 100 100 100 100 100 100 100 100
5 5 5 5 5 5 5 5 5 5 5 5 1 5 5 74 100 75 100 69 94 95 31 100 57 64 5 7 57 87 100 100 100 100 100 100 100 100 100 100 100 100 100
94 66 5 5 53 68 5 5 5 5 5 5 5 81 84 42 30 85 0 11 62 96 99 14 87 75 6 15 74 100 100 100 100 100 100 100 100 100 100 100 100 100 100
63 25 68 100 99 86 64 61 48 5 5 5 13 73 24 42 93 93 83 97 96 97 92 84 72 80 94 14 73 100 100 100 100 100 100 100 100 100 100 100 100 100 100
5 67 100 100 100 99 84 56 12 5 5 5 5 5 5 50 95 100 96 71 92 99 92 72 44 99 39 46 82 100 100 100 100 100 100 100 100 100 100 100 100 100 100
5 28 38 12 34 63 30 61 31 57 68 5 5 5 5 5 9 11 12 77 12 12 26 59 79 88 5 66 97 100 100 100 100 100 100 100 100 100 100 100 100 100 100
96 68 62 82 81 28 61 60 43 64 16 71 53 28 6 16 17 67 97 64 43 96 100 100 100 51 5 57 97 100 100 100 100 100 100 100 100 100 100 100 100 100 100
100 81 98 94 99 93 71 93 100 97 97 95 95 48 29 98 100 100 12 32 95 98 97 98 93 6 5 59 100 100 100 100 100 100 100 100 100 100 100 100 94 99 72